Location: Bakhuizen
(52.8696°N, 5.4575°E)
Time: 16:52:34
(UTC+00:00)

Nimbus 7 Rocket - Visible Passes

Search period start: 26 September 2021 00:00
Search period end: 06 October 2021 00:00
Orbit: 922 x 965 km, 99.4° (Epoch: 26 September)

Date Brightness Start Highest point End Pass type
(mag) Time Alt. Az. Time Alt. Az. Time Alt. Az.
26 Sep 5.6 00:18:58 10° N 00:22:33 37° N 00:22:33 37° N visible
26 Sep 6.4 02:02:56 10° N 02:06:08 15° NW 02:06:31 15° NW visible
26 Sep 6.3 22:51:52 10° NNE 22:54:06 22° NE 22:54:06 22° NE visible
27 Sep 5.7 00:34:28 10° N 00:38:04 34° NNW 00:38:04 34° NNW visible
27 Sep 6.5 02:18:54 10° NNW 02:21:15 13° NW 02:22:02 12° NW visible
27 Sep 6.2 23:07:11 10° NNE 23:09:37 25° NE 23:09:37 25° NE visible
28 Sep 5.8 00:50:01 10° N 00:53:35 30° NNW 00:53:35 30° NNW visible
28 Sep 6.6 02:35:24 10° NNW 02:36:21 10° NW 02:37:18 10° NW visible
28 Sep 6.1 23:22:31 10° NNE 23:25:07 27° NNE 23:25:07 27° NNE visible
29 Sep 5.9 01:05:35 10° N 01:09:05 27° NNW 01:09:05 27° NNW visible
29 Sep 6.0 23:37:54 10° NNE 23:40:38 29° NNE 23:40:38 29° NNE visible
30 Sep 6.1 01:21:11 10° N 01:24:36 23° NW 01:24:36 23° NW visible
30 Sep 6.8 22:11:36 10° NE 22:12:11 12° NE 22:12:11 12° NE visible
30 Sep 6.0 23:53:20 10° NNE 23:56:09 30° NNE 23:56:09 30° NNE visible
01 Oct 6.2 01:36:50 10° N 01:40:07 20° NW 01:40:07 20° NW visible
01 Oct 6.7 22:26:40 10° NE 22:27:42 14° NE 22:27:42 14° NE visible
02 Oct 6.0 00:08:48 10° NNE 00:11:40 30° N 00:11:40 30° N visible
02 Oct 6.3 01:52:33 10° N 01:55:38 17° NW 01:55:38 17° NW visible
02 Oct 6.6 22:41:51 10° NNE 22:43:13 16° NE 22:43:13 16° NE visible
03 Oct 6.0 00:24:16 10° N 00:27:11 29° N 00:27:11 29° N visible
03 Oct 6.5 02:08:21 10° NNW 02:11:09 14° NW 02:11:09 14° NW visible
03 Oct 6.5 22:57:07 10° NNE 22:58:44 19° NE 22:58:44 19° NE visible
04 Oct 6.1 00:39:48 10° N 00:42:42 27° N 00:42:42 27° N visible
04 Oct 6.6 02:24:23 10° NNW 02:26:28 12° NW 02:26:40 12° NW visible
04 Oct 6.5 23:12:26 10° NNE 23:14:15 20° NNE 23:14:15 20° NNE visible
05 Oct 6.1 00:55:20 10° N 00:58:13 25° NNW 00:58:13 25° NNW visible
05 Oct 6.4 23:27:47 10° NNE 23:29:46 22° NNE 23:29:46 22° NNE visible
